Temperature
16 13 13 15 15 16 15 15 12 11 12 10 8 6 6 7 7 6 5 5 4 4 3 3 3 2 2 1 -0 -1 -2 -3 -3 -3 -3 -3 -4 -4 -5 -5 -6 -6 -6 -7
14 14 15 15 15 15 16 14 12 11 12 10 7 7 6 7 7 6 6 5 4 4 3 3 2 2 1 -0 -2 -2 -3 -3 -4 -4 -4 -5 -5 -5 -6 -6 -6 -7 -7 -8
15 15 15 15 14 14 14 14 13 12 11 9 8 7 6 6 6 6 5 5 4 4 3 2 2 1 -0 -1 -2 -3 -3 -4 -4 -5 -5 -5 -5 -5 -5 -6 -7 -7 -8 -8
14 14 15 14 14 14 14 14 13 12 10 9 9 7 5 5 5 5 4 4 4 3 2 2 1 -0 -1 -2 -3 -3 -4 -4 -5 -5 -6 -6 -6 -7 -7 -8 -8 -8 -8 -9
14 14 14 14 14 14 14 13 13 12 11 10 8 8 6 4 4 4 4 3 3 2 2 1 0 -1 -1 -2 -3 -4 -4 -4 -5 -6 -6 -7 -7 -8 -8 -8 -8 -9 -9 -9
14 14 14 14 14 14 13 12 12 9 9 10 9 7 7 3 4 3 3 3 2 2 1 1 -0 -1 -2 -3 -3 -4 -4 -5 -6 -6 -7 -7 -8 -8 -8 -9 -9 -10 -10 -10
14 14 14 14 13 12 11 11 10 11 10 10 9 7 6 4 4 4 3 2 2 1 1 0 -0 -2 -3 -3 -4 -4 -5 -5 -6 -7 -7 -8 -8 -9 -9 -10 -10 -11 -11 -11
14 13 13 12 12 12 12 12 11 11 10 9 9 8 4 4 5 4 3 2 2 1 0 -0 -2 -3 -3 -4 -4 -5 -5 -6 -6 -7 -7 -8 -9 -9 -10 -10 -11 -11 -12 -12
12 13 13 12 12 12 13 10 11 9 9 8 8 6 4 4 3 3 2 2 1 0 -0 -1 -2 -3 -4 -4 -5 -5 -6 -6 -7 -7 -8 -8 -9 -10 -10 -11 -11 -11 -12 -12
11 11 12 12 12 12 12 10 8 9 10 9 8 7 5 3 3 2 1 1 0 -0 -1 -2 -3 -4 -4 -5 -5 -6 -6 -7 -7 -8 -8 -9 -10 -10 -11 -11 -12 -12 -12 -12
11 11 11 12 12 12 12 12 10 8 7 8 7 8 5 3 2 1 1 0 -0 -1 -2 -3 -4 -4 -4 -5 -5 -6 -6 -7 -7 -8 -9 -10 -10 -11 -11 -12 -12 -13 -13 -13
8 9 10 11 10 10 11 11 9 9 9 6 5 6 4 3 3 2 1 -0 -1 -2 -3 -3 -4 -4 -4 -5 -5 -6 -7 -7 -8 -9 -9 -10 -10 -11 -12 -12 -12 -13 -13 -13
9 9 11 12 11 10 10 10 9 7 6 5 6 6 3 3 2 1 0 -1 -1 -2 -3 -3 -4 -4 -4 -5 -6 -6 -7 -8 -8 -9 -9 -10 -11 -12 -12 -12 -13 -13 -13 -13
9 8 10 12 12 10 10 9 9 7 6 5 5 6 3 2 0 -0 -1 -1 -2 -3 -3 -3 -4 -4 -5 -5 -6 -7 -7 -8 -9 -9 -10 -10 -11 -12 -12 -13 -13 -13 -13 -13
8 8 9 9 9 9 8 8 8 7 6 5 6 6 4 2 1 0 -1 -2 -2 -3 -3 -3 -4 -4 -5 -6 -6 -7 -8 -8 -9 -9 -10 -11 -12 -12 -13 -13 -13 -13 -13 -13
7 8 8 8 8 8 7 7 7 6 6 5 5 5 3 2 1 -1 -2 -2 -2 -3 -3 -4 -4 -5 -5 -6 -7 -7 -8 -8 -9 -9 -10 -11 -12 -12 -13 -13 -13 -13 -13 -13
7 7 8 7 6 7 8 8 6 6 6 6 5 5 1 -0 -1 -1 -2 -2 -2 -3 -3 -4 -4 -5 -6 -6 -7 -7 -8 -8 -8 -9 -10 -11 -12 -12 -13 -13 -13 -13 -13 -13
7 6 5 5 7 11 11 7 7 6 6 5 5 3 2 1 -0 -1 -2 -2 -2 -3 -3 -4 -5 -5 -6 -6 -7 -7 -8 -8 -9 -9 -10 -11 -12 -12 -13 -13 -13 -13 -13 -13
6 5 5 5 7 7 8 7 7 6 6 5 3 2 1 -0 -2 -3 -3 -3 -3 -3 -4 -4 -5 -5 -6 -6 -7 -7 -7 -8 -9 -9 -10 -11 -12 -12 -13 -13 -13 -13 -13 -13
4 4 4 4 7 9 10 7 7 6 6 5 4 1 -1 -2 -3 -2 -2 -3 -3 -3 -4 -4 -5 -5 -6 -6 -7 -7 -7 -8 -9 -9 -10 -11 -11 -12 -13 -13 -13 -13 -13 -13
5 4 4 4 5 6 7 6 6 6 8 6 5 3 1 0 -0 0 -1 -3 -3 -3 -4 -5 -5 -5 -6 -6 -6 -7 -7 -8 -9 -9 -10 -10 -11 -12 -12 -12 -13 -13 -13 -13
6 4 3 2 4 6 6 4 5 6 6 6 5 4 3 2 1 -0 -2 -3 -3 -4 -4 -4 -5 -5 -6 -6 -6 -7 -7 -8 -8 -9 -9 -10 -11 -11 -12 -12 -12 -13 -13 -13
6 6 5 5 8 9 8 9 8 7 7 6 5 4 3 2 0 -1 -2 -3 -3 -4 -4 -4 -5 -5 -6 -6 -6 -7 -7 -8 -8 -8 -9 -9 -10 -11 -11 -12 -12 -12 -13 -13
6 7 5 5 5 8 8 8 8 7 7 6 5 4 3 2 0 -1 -2 -3 -3 -4 -4 -4 -5 -5 -5 -6 -6 -7 -7 -8 -8 -8 -9 -9 -10 -10 -11 -11 -12 -12 -13 -13
6 5 5 5 5 6 7 7 7 6 6 5 4 3 2 1 -0 -1 -2 -2 -3 -3 -4 -4 -4 -5 -5 -6 -6 -7 -7 -7 -8 -8 -8 -9 -9 -10 -10 -10 -11 -12 -12 -13
6 6 6 8 10 8 10 10 7 6 5 4 3 2 1 1 -0 -1 -2 -2 -3 -3 -4 -4 -4 -5 -5 -5 -6 -6 -7 -7 -7 -8 -8 -9 -10 -10 -10 -10 -10 -10 -11 -12
Wind_Speed
6 7 4 2 3 4 4 3 5 5 3 4 6 8 8 6 8 9 8 7 7 6 6 6 5 5 6 8 8 8 8 9 11 8 9 10 10 9 14 19 21 22 24 24
7 4 4 4 2 2 2 4 4 1 1 3 3 5 5 5 7 8 9 8 7 6 6 5 5 6 7 6 6 6 7 7 9 8 8 7 6 7 13 15 17 21 23 22
6 2 4 3 7 7 5 3 3 4 2 3 4 2 4 2 4 6 6 6 6 7 7 4 5 5 4 4 5 8 7 7 10 12 10 10 5 5 6 6 10 19 22 21
4 5 5 5 4 4 1 2 3 4 4 3 5 3 6 6 4 4 5 6 6 6 6 4 4 3 2 3 5 6 7 7 10 12 9 10 11 8 9 9 8 17 20 20
2 4 5 4 3 1 3 2 3 3 3 1 2 3 3 5 6 5 5 6 6 6 6 4 2 2 3 4 6 6 7 7 9 11 8 9 8 7 8 9 9 9 14 18
2 2 2 2 4 2 2 4 4 5 4 3 4 6 4 5 6 6 6 6 6 5 4 3 2 4 5 6 6 7 7 7 8 9 8 9 10 11 12 13 11 10 8 12
3 3 4 4 5 7 7 6 6 6 4 5 0 4 4 3 4 8 9 7 6 4 3 4 5 6 6 7 7 7 8 8 8 8 9 9 9 10 11 12 11 12 11 10
1 4 4 4 2 2 4 4 4 3 5 6 4 3 4 4 4 7 8 8 6 4 4 5 5 5 6 7 8 8 9 8 9 9 10 8 8 8 9 11 11 11 10 9
2 4 2 1 2 1 2 2 4 4 2 5 6 4 3 3 4 6 7 6 5 4 4 5 5 5 6 7 7 8 9 9 10 10 10 9 9 9 11 10 10 9 11 16
1 4 4 2 3 2 2 5 5 2 2 6 7 5 5 9 8 6 6 6 5 3 3 4 4 5 6 6 7 7 8 9 9 10 10 13 9 11 12 11 12 11 14 17
1 1 5 2 0 2 2 0 3 3 4 3 6 7 4 9 9 8 7 7 5 3 2 3 4 5 5 6 7 7 8 9 10 10 10 11 10 12 13 10 11 13 13 16
2 3 3 4 3 2 2 2 4 1 3 3 3 7 2 7 8 9 9 7 5 4 2 1 3 5 6 7 8 8 9 9 10 10 10 11 11 11 12 13 13 15 13 16
2 3 3 5 3 1 2 3 4 5 3 3 4 6 3 5 6 8 9 7 4 3 1 2 4 5 7 8 8 9 9 10 10 10 11 11 12 12 13 13 13 14 13 13
3 2 4 5 7 4 4 4 5 6 4 5 8 7 5 7 7 7 7 6 4 2 0 2 4 6 7 8 8 9 10 10 11 11 11 12 13 13 13 12 12 13 13 13
3 2 4 7 6 4 6 8 7 9 8 9 8 7 7 10 10 9 7 6 4 2 1 4 5 6 7 8 8 9 9 10 11 11 12 12 12 12 12 12 12 12 12 14
3 1 3 5 3 4 6 9 8 8 7 9 8 8 3 7 7 7 7 6 4 1 2 4 5 7 7 8 8 9 10 11 10 10 11 12 13 13 12 12 12 13 13 13
2 2 2 5 7 7 8 7 8 7 8 8 9 7 8 6 9 9 8 6 4 2 1 3 5 6 6 7 8 9 10 10 10 10 11 12 12 12 12 13 13 13 12 12
4 3 2 3 8 5 5 3 6 7 7 8 6 6 9 7 6 5 6 7 5 3 1 2 4 5 5 6 7 8 8 9 9 10 10 11 11 12 11 11 12 11 10 12
3 5 3 1 4 10 8 4 5 6 8 7 8 8 8 9 6 3 5 6 6 4 2 0 2 3 5 7 8 8 8 8 9 10 11 12 11 11 11 12 12 10 10 9
5 5 4 3 2 6 6 3 3 3 7 5 10 12 10 11 3 5 8 7 6 4 2 1 2 3 5 7 7 7 8 9 10 11 11 11 11 11 10 11 10 9 9 10
2 2 3 5 6 10 6 6 6 2 7 6 10 11 12 10 6 7 10 7 6 5 3 2 2 3 5 7 7 7 8 9 10 10 10 10 10 9 9 9 8 10 10 11
8 6 6 5 4 9 7 9 9 9 4 7 8 9 8 7 9 10 9 8 6 4 2 1 2 4 5 6 6 7 8 9 9 9 9 9 9 9 10 9 9 9 9 9
8 10 7 11 10 4 10 9 6 7 8 7 8 7 10 10 9 9 8 7 6 4 2 1 2 4 6 6 5 6 8 8 9 9 9 9 9 8 8 8 8 8 8 7
5 5 6 8 11 7 8 5 6 7 8 8 8 10 11 10 10 9 9 7 5 3 2 0 2 4 5 6 6 6 8 8 8 9 9 9 8 8 8 7 7 7 7 7
8 7 6 8 8 3 6 9 9 7 8 9 8 8 11 12 10 9 8 7 5 4 2 1 1 3 5 6 6 7 7 8 8 9 9 9 9 8 8 9 7 9 6 10
7 10 9 10 9 8 8 9 12 12 10 12 10 9 8 10 11 9 8 7 5 4 3 2 2 3 4 5 6 7 6 7 8 9 9 8 7 8 8 8 10 14 14 17
Wind_Direction
29 65 64 281 238 219 217 180 181 208 179 157 171 164 176 153 131 136 142 139 133 130 117 101 84 72 54 35 24 15 4 358 360 356 356 352 350 346 349 351 352 353 352 349
47 52 269 284 349 40 113 120 145 186 137 126 137 171 171 159 154 154 150 145 132 118 107 92 67 49 43 27 5 7 1 355 356 351 344 341 330 327 338 338 346 350 349 348
121 241 306 57 40 41 47 113 172 192 146 90 114 146 174 172 134 128 122 126 123 116 114 97 61 48 33 11 359 13 360 351 350 348 347 345 333 323 337 337 344 345 345 345
79 1 33 63 45 46 314 187 167 154 150 238 172 263 204 186 166 144 118 113 108 105 111 100 74 50 24 358 3 7 355 347 347 350 351 351 351 344 336 335 331 334 338 340
31 17 39 34 339 329 268 269 221 174 174 248 209 217 272 159 189 188 151 135 117 117 116 103 89 63 32 13 8 357 348 343 345 348 346 342 339 329 327 329 328 328 332 336
59 12 59 321 308 295 329 33 60 56 78 298 223 183 248 205 207 170 155 142 130 126 114 96 55 39 21 8 359 350 347 343 342 344 340 337 336 333 335 336 334 334 330 330
3 352 5 11 3 11 40 51 18 356 357 270 231 173 247 224 176 157 157 153 145 127 100 57 35 22 8 359 351 346 348 344 343 342 340 335 335 332 331 332 333 333 333 331
358 308 338 19 54 336 358 102 121 270 272 292 341 258 246 222 160 130 134 141 132 103 72 52 35 18 0 353 348 347 349 345 343 344 339 333 336 335 332 329 329 328 327 322
75 286 307 4 14 75 62 95 154 154 293 287 283 278 279 221 173 137 133 129 117 93 66 47 26 13 360 351 348 346 347 345 344 343 338 339 338 332 329 325 323 323 323 326
134 297 300 315 12 14 115 140 88 115 299 295 293 272 234 204 205 174 155 145 130 100 65 39 15 1 351 346 342 345 346 343 338 339 340 346 331 328 326 324 323 321 321 323
80 204 309 340 342 324 4 124 117 129 172 213 288 279 224 189 179 171 167 155 144 123 83 25 356 346 343 343 344 346 345 343 340 338 334 332 328 327 325 322 321 320 319 322
45 118 286 270 230 222 245 181 148 179 265 208 237 278 77 147 150 149 149 146 145 131 102 11 344 344 348 348 346 346 343 341 337 335 334 331 328 326 326 324 322 322 321 322
51 113 354 349 334 243 198 182 149 132 139 208 228 265 118 122 123 138 146 151 152 140 111 341 347 352 349 346 345 343 341 338 336 336 335 332 331 330 329 326 324 325 324 324
110 134 188 237 254 245 232 215 182 152 197 236 234 248 190 178 156 155 158 159 162 171 247 348 356 351 346 344 342 339 337 337 340 339 336 335 333 331 328 326 327 328 329 328
106 207 257 261 270 244 240 232 203 196 203 218 245 240 228 190 174 170 166 167 171 185 350 5 1 349 344 344 340 337 336 337 338 337 337 335 331 329 329 330 330 331 332 336
102 180 316 294 315 293 266 246 223 220 219 236 257 261 175 131 128 148 166 172 177 186 7 4 358 349 345 341 336 336 336 335 334 334 333 333 334 335 336 335 337 336 335 333
133 85 9 291 313 329 291 238 195 212 214 203 226 225 150 152 167 173 177 176 174 165 32 4 349 338 335 331 329 330 328 328 333 332 333 335 336 338 338 341 342 339 336 336
137 116 113 314 350 299 259 180 197 217 240 213 203 166 167 155 143 152 167 169 171 163 109 348 338 333 328 323 325 324 325 330 332 332 334 337 338 337 337 340 341 338 334 338
109 136 120 94 299 281 291 222 193 206 270 206 174 151 128 121 115 183 193 172 170 164 152 170 328 319 322 326 326 328 331 333 336 340 340 339 339 339 340 343 340 336 333 336
62 88 125 145 236 258 259 163 133 90 277 205 159 156 155 154 180 224 178 162 153 143 129 87 355 340 337 328 330 335 336 338 342 340 336 335 338 337 337 338 334 332 334 339
110 91 167 188 232 265 243 154 129 184 260 164 155 157 164 184 188 155 149 152 150 139 123 82 21 350 327 322 333 339 337 337 332 331 332 334 335 332 337 334 329 331 337 337
183 179 199 167 215 261 184 147 187 215 132 139 147 152 150 141 126 138 149 152 150 141 120 55 13 344 325 327 339 338 334 324 325 329 331 330 329 334 345 329 326 327 330 330
201 195 190 194 222 243 175 195 194 149 154 160 152 149 138 141 152 156 157 158 156 151 144 50 358 335 327 331 336 331 321 322 328 331 330 325 326 324 327 322 320 324 328 331
253 181 201 247 261 238 211 204 172 164 159 156 147 147 150 153 158 158 160 163 165 166 164 314 351 344 331 327 330 318 315 322 328 329 326 326 326 327 324 325 328 328 327 327
235 187 217 254 270 275 232 200 173 149 135 131 130 144 153 150 156 162 165 169 172 172 182 221 309 310 313 320 322 322 322 325 329 327 327 327 331 325 325 331 328 332 320 337
205 189 192 228 220 196 221 192 163 151 155 152 142 142 150 155 158 158 164 168 171 180 195 237 281 301 311 319 318 317 316 321 327 335 334 329 329 331 331 327 329 337 343 343
Height
1580 1586 1592 1590 1589 1588 1589 1592 1599 1600 1599 1603 1608 1612 1614 1615 1617 1618 1619 1620 1619 1619 1618 1616 1614 1611 1608 1604 1598 1592 1586 1580 1573 1567 1561 1555 1550 1546 1541 1536 1531 1525 1520 1514
1586 1591 1589 1587 1586 1585 1586 1593 1599 1600 1598 1603 1609 1613 1614 1615 1616 1617 1618 1618 1618 1618 1617 1615 1613 1610 1606 1602 1596 1590 1584 1578 1572 1566 1561 1555 1550 1545 1539 1534 1529 1523 1517 1512
1589 1590 1586 1587 1589 1589 1591 1592 1596 1599 1601 1603 1609 1615 1616 1616 1617 1618 1618 1618 1618 1617 1616 1614 1611 1608 1604 1599 1593 1588 1582 1577 1571 1565 1559 1553 1547 1541 1535 1529 1525 1520 1515 1509
1590 1589 1588 1589 1591 1592 1592 1591 1592 1596 1603 1607 1607 1614 1616 1616 1616 1617 1617 1617 1617 1616 1615 1612 1610 1606 1602 1597 1592 1587 1581 1575 1569 1563 1557 1550 1544 1538 1532 1527 1522 1517 1512 1506
1593 1591 1591 1592 1592 1591 1592 1590 1591 1593 1598 1604 1606 1611 1613 1616 1616 1617 1617 1617 1616 1615 1613 1611 1608 1604 1600 1596 1591 1585 1580 1574 1568 1562 1556 1549 1543 1537 1531 1525 1519 1513 1508 1503
1593 1592 1592 1592 1591 1590 1590 1592 1594 1599 1603 1606 1601 1611 1608 1615 1613 1614 1615 1616 1615 1614 1612 1609 1607 1603 1599 1594 1589 1583 1578 1572 1566 1560 1554 1548 1541 1535 1528 1521 1515 1509 1504 1499
1596 1594 1593 1592 1592 1592 1593 1600 1607 1604 1609 1605 1598 1605 1609 1611 1609 1610 1613 1614 1613 1612 1610 1608 1605 1601 1597 1592 1587 1581 1575 1570 1564 1558 1552 1546 1539 1533 1526 1519 1513 1506 1500 1495
1601 1601 1596 1595 1596 1597 1596 1599 1611 1613 1615 1608 1600 1603 1613 1610 1610 1610 1611 1612 1612 1610 1609 1606 1603 1599 1595 1590 1585 1579 1573 1568 1562 1555 1549 1543 1537 1530 1524 1518 1511 1505 1498 1492
1605 1603 1596 1595 1595 1596 1597 1603 1603 1613 1613 1614 1606 1607 1611 1609 1610 1611 1611 1611 1610 1609 1608 1605 1602 1598 1593 1588 1583 1578 1572 1566 1560 1553 1547 1541 1534 1528 1521 1515 1509 1502 1496 1490
1604 1606 1598 1596 1596 1596 1597 1600 1609 1610 1613 1614 1606 1603 1607 1608 1608 1609 1609 1609 1609 1608 1606 1604 1600 1596 1592 1587 1582 1576 1570 1564 1558 1552 1545 1539 1532 1526 1519 1512 1506 1499 1493 1487
1603 1606 1603 1599 1599 1599 1599 1600 1604 1612 1615 1617 1614 1602 1598 1599 1602 1605 1607 1607 1607 1607 1605 1602 1598 1594 1590 1585 1580 1574 1568 1562 1556 1549 1543 1536 1529 1523 1516 1510 1503 1497 1490 1484
1606 1609 1608 1601 1599 1600 1599 1599 1603 1610 1610 1616 1620 1607 1598 1598 1600 1602 1605 1606 1606 1605 1603 1600 1597 1593 1588 1583 1578 1573 1567 1560 1554 1547 1541 1534 1527 1520 1514 1507 1501 1495 1488 1482
1605 1608 1608 1602 1604 1601 1599 1599 1601 1607 1613 1618 1615 1603 1601 1600 1601 1602 1603 1604 1604 1603 1601 1598 1594 1590 1586 1581 1576 1571 1565 1559 1552 1546 1538 1531 1525 1518 1512 1506 1499 1493 1486 1479
1604 1607 1608 1604 1600 1597 1599 1599 1599 1605 1613 1614 1607 1598 1600 1599 1600 1602 1602 1603 1602 1601 1599 1596 1592 1588 1584 1580 1575 1570 1564 1558 1551 1544 1537 1530 1524 1517 1511 1504 1498 1491 1484 1478
1604 1607 1603 1600 1597 1597 1597 1596 1598 1601 1602 1605 1596 1593 1592 1594 1596 1598 1600 1601 1600 1598 1596 1593 1590 1586 1583 1578 1574 1568 1562 1556 1549 1542 1536 1529 1523 1517 1510 1503 1497 1490 1484 1477
1604 1606 1604 1601 1597 1598 1596 1593 1595 1596 1596 1594 1592 1591 1588 1591 1594 1596 1598 1598 1597 1595 1593 1591 1588 1585 1581 1577 1572 1566 1561 1555 1548 1542 1535 1529 1522 1516 1509 1503 1496 1489 1483 1476
1605 1606 1606 1605 1602 1596 1591 1585 1589 1588 1586 1586 1587 1586 1588 1591 1592 1593 1594 1595 1594 1593 1591 1589 1587 1584 1580 1576 1571 1566 1560 1554 1548 1541 1535 1528 1522 1515 1509 1503 1496 1489 1483 1476
1605 1607 1612 1613 1605 1594 1581 1581 1581 1582 1579 1579 1579 1581 1583 1586 1589 1591 1592 1592 1592 1591 1590 1588 1585 1582 1579 1575 1570 1565 1560 1553 1547 1541 1534 1528 1521 1515 1509 1503 1496 1490 1484 1477
1603 1607 1613 1615 1608 1597 1581 1578 1578 1580 1577 1573 1575 1579 1582 1585 1587 1589 1589 1589 1589 1589 1588 1586 1583 1580 1577 1573 1569 1564 1558 1553 1546 1540 1534 1527 1521 1515 1509 1503 1497 1491 1485 1479
1605 1607 1614 1616 1608 1596 1575 1575 1575 1579 1577 1570 1571 1575 1579 1583 1588 1586 1586 1587 1587 1586 1585 1584 1581 1578 1575 1572 1568 1563 1557 1551 1545 1540 1534 1528 1522 1516 1510 1504 1498 1492 1487 1481
1607 1611 1613 1613 1611 1589 1572 1573 1577 1582 1570 1566 1567 1571 1575 1578 1580 1581 1582 1584 1584 1584 1583 1581 1579 1577 1573 1570 1566 1561 1556 1551 1546 1540 1535 1529 1523 1516 1511 1505 1499 1494 1488 1483
1599 1607 1609 1614 1611 1588 1568 1570 1573 1567 1562 1563 1566 1569 1572 1574 1576 1578 1580 1581 1582 1582 1581 1580 1578 1575 1572 1568 1565 1561 1556 1551 1546 1541 1535 1529 1523 1517 1511 1505 1499 1494 1488 1483
1588 1585 1585 1586 1573 1559 1559 1558 1559 1559 1560 1562 1564 1567 1570 1572 1573 1575 1577 1579 1579 1579 1579 1578 1576 1574 1571 1567 1563 1559 1555 1550 1546 1540 1535 1529 1524 1518 1512 1505 1499 1494 1489 1483
1576 1573 1575 1573 1559 1554 1554 1554 1555 1557 1558 1560 1563 1565 1567 1569 1571 1573 1575 1576 1577 1577 1577 1576 1574 1572 1569 1566 1562 1558 1554 1550 1545 1540 1534 1529 1523 1517 1512 1506 1500 1494 1489 1484
1568 1568 1569 1564 1553 1551 1548 1549 1551 1553 1556 1558 1561 1563 1565 1566 1568 1570 1572 1574 1575 1575 1575 1574 1572 1570 1567 1564 1561 1557 1553 1548 1544 1539 1534 1528 1523 1517 1512 1506 1501 1495 1490 1486
1556 1556 1557 1552 1543 1544 1543 1543 1546 1549 1552 1555 1558 1560 1562 1564 1566 1568 1570 1571 1572 1573 1572 1571 1570 1568 1566 1563 1559 1556 1552 1547 1542 1537 1532 1527 1522 1517 1512 1506 1501 1497 1491 1486